DW5310 Weather Reports


Display with metric or nautical units.
time (UTC)temp
F
wind
direction
speed
MPH
gust
MPH
rain 1hr
in
rain 24hr
in
rain mn
in
humidity
%
barometer
mb
20260504002504 87 282 0.0 0.0 0.00 0.00 0.00 33 1007.5
20260504002004 87 35 0.0 0.0 0.00 0.00 0.00 33 1007.5
20260504001504 87 102 0.0 0.0 0.00 0.00 0.00 33 1007.5
20260504001005 87 35 0.0 0.0 0.00 0.00 0.00 33 1007.5
20260503235504 88 305 0.0 0.0 0.00 0.00 0.00 32 1007.5
20260503235005 88 95 0.0 0.0 0.00 0.00 0.00 32 1007.5
20260503234504 88 305 0.0 0.0 0.00 0.00 0.00 32 1007.5
20260503234006 88 86 0.0 0.0 0.00 0.00 0.00 33 1007.5
20260503233004 90 96 0.0 0.0 0.00 0.00 0.00 33 1008.5
20260503232504 90 80 0.0 0.0 0.00 0.00 0.00 33 1008.5
20260503232005 90 72 0.0 0.0 0.00 0.00 0.00 32 1008.5
20260503231504 91 52 0.0 0.0 0.00 0.00 0.00 32 1008.5
20260503231004 91 38 0.0 0.0 0.00 0.00 0.00 33 1008.5
20260503230504 90 44 0.0 0.0 0.00 0.00 0.00 32 1008.5
20260503230004 90 125 0.0 0.0 0.00 0.00 0.00 32 1008.5
20260503225504 90 152 0.0 0.0 0.00 0.00 0.00 31 1008.5
20260503224504 90 260 0.0 0.0 0.00 0.00 0.00 34 1008.5
20260503224004 90 35 0.0 0.0 0.00 0.00 0.00 34 1008.5
20260503223004 90 300 0.0 0.0 0.00 0.00 0.00 34 1008.5
20260503222004 90 305 0.0 0.0 0.00 0.00 0.00 36 1008.5
20260503221504 90 305 0.0 0.0 0.00 0.00 0.00 37 1008.5
20260503221003 90 215 0.0 0.0 0.00 0.00 0.00 37 1008.5
20260503220505 90 43 0.0 0.0 0.00 0.00 0.00 38 1008.5
20260503220004 90 56 0.0 0.0 0.00 0.00 0.00 38 1008.5
20260503215004 89 35 0.0 0.0 0.00 0.00 0.00 40 1008.5
20260503214504 89 35 0.0 0.0 0.00 0.00 0.00 40 1008.5
20260503214003 88 35 0.0 0.0 0.00 0.00 0.00 40 1008.5
20260503213504 88 215 0.0 0.0 0.00 0.00 0.00 41 1008.5
20260503213004 88 59 0.0 0.0 0.00 0.00 0.00 40 1008.5
20260503212504 88 110 0.0 0.0 0.00 0.00 0.00 41 1008.5
20260503212004 87 125 0.0 0.0 0.00 0.00 0.00 42 1008.5
20260503211504 86 88 0.0 0.0 0.00 0.00 0.00 42 1008.5
20260503211003 86 305 0.0 0.0 0.00 0.00 0.00 42 1008.5
20260503210504 86 279 0.0 0.0 0.00 0.00 0.00 44 1008.5
20260503210004 85 220 0.0 0.0 0.00 0.00 0.00 44 1009.5
20260503205504 85 75 0.0 0.0 0.00 0.00 0.00 44 1009.5
20260503205004 84 155 0.0 0.0 0.00 0.00 0.00 45 1009.5
20260503204503 84 305 0.0 0.0 0.00 0.00 0.00 44 1009.5
20260503204004 84 35 0.0 0.0 0.00 0.00 0.00 45 1009.5
20260503203504 83 305 0.0 0.0 0.00 0.00 0.00 45 1009.5
20260503203005 83 35 0.0 0.0 0.00 0.00 0.00 46 1009.5
20260503202004 82 305 0.0 0.0 0.00 0.00 0.00 47 1009.5
20260503201504 82 320 0.0 0.0 0.00 0.00 0.00 47 1009.5
20260503201006 82 80 0.0 0.0 0.00 0.00 0.00 48 1009.5
20260503200504 82 41 0.0 0.0 0.00 0.00 0.00 49 1009.5
20260503200003 81 99 0.0 0.0 0.00 0.00 0.00 49 1009.5
20260503195504 81 87 0.0 0.0 0.00 0.00 0.00 50 1009.5
20260503195004 80 101 0.0 0.0 0.00 0.00 0.00 50 1009.5
20260503194504 80 35 0.0 0.0 0.00 0.00 0.00 51 1010.5
20260503194004 80 76 0.0 0.0 0.00 0.00 0.00 50 1010.5
20260503193504 80 75 0.0 0.0 0.00 0.00 0.00 51 1010.5
20260503192007 78 45 0.0 0.0 0.00 0.00 0.00 52 1010.5
20260503191509 77 47 0.0 0.0 0.00 0.00 0.00 52 1010.5
20260503191007 77 82 0.0 0.0 0.00 0.00 0.00 52 1010.5
20260503190507 76 223 0.0 0.0 0.00 0.00 0.00 55 1010.5
20260503190006 76 305 0.0 0.0 0.00 0.00 0.00 55 1010.5
20260503185506 76 229 0.0 0.0 0.00 0.00 0.00 55 1010.5
20260503185008 75 67 0.0 0.0 0.00 0.00 0.00 56 1010.5
20260503184506 75 305 0.0 0.0 0.00 0.00 0.00 57 1010.5
20260503184006 75 102 0.0 0.0 0.00 0.00 0.00 58 1010.5
20260503183506 74 30 0.0 0.0 0.00 0.00 0.00 58 1010.5
20260503183007 74 35 0.0 0.0 0.00 0.00 0.00 59 1010.5
20260503182506 74 116 0.0 0.0 0.00 0.00 0.00 59 1010.5
20260503182006 73 275 0.0 0.0 0.00 0.00 0.00 60 1010.5
20260503181507 73 305 0.0 0.0 0.00 0.00 0.00 61 1010.5
20260503181006 73 78 0.0 0.0 0.00 0.00 0.00 61 1010.5
20260503180506 73 83 0.0 0.0 0.00 0.00 0.00 63 1010.5
20260503180006 72 40 0.0 0.0 0.00 0.00 0.00 63 1010.5
20260503175507 72 47 0.0 0.0 0.00 0.00 0.00 64 1010.5
20260503175007 71 323 0.0 0.0 0.00 0.00 0.00 64 1010.5
20260503174506 71 318 0.0 0.0 0.00 0.00 0.00 65 1011.5
20260503174006 71 35 0.0 0.0 0.00 0.00 0.00 66 1011.5
20260503173007 70 215 0.0 2.0 0.00 0.00 0.00 67 1009.5
20260503172007 69 76 0.0 0.0 0.00 0.00 0.00 68 1009.5
20260503171507 69 35 0.0 0.0 0.00 0.00 0.00 69 1011.5
20260503171006 69 63 0.0 0.0 0.00 0.00 0.00 69 1011.5
20260503170507 68 171 0.0 0.0 0.00 0.00 0.00 70 1011.5
20260503151007 60 125 0.0 0.0 0.00 0.00 0.00 85 1010.5
20260503130506 55 305 0.0 0.0 0.00 0.00 0.00 90 1011.5
20260503110505 58 35 0.0 0.0 0.00 0.00 0.00 86 1010.5
20260503090506 59 305 0.0 0.0 0.00 0.00 0.00 83 1011.5
20260503081505 60 305 0.0 0.0 0.00 0.00 0.00 81 1011.5
20260503081006 60 305 0.0 0.0 0.00 0.00 0.00 81 1011.5
20260503072505 60 305 0.0 0.0 0.00 0.00 0.00 81 1011.5
20260503072006 60 305 0.0 0.0 0.00 0.00 0.00 81 1011.5
20260503071005 60 305 0.0 0.0 0.00 0.00 0.00 80 1011.5
20260503070506 60 305 0.0 0.0 0.00 0.00 0.00 80 1011.5
20260503055005 60 305 0.0 0.0 0.00 0.00 0.00 78 1011.5
20260503054505 60 305 0.0 0.0 0.00 0.00 0.00 79 1011.5
20260503054005 61 305 0.0 0.0 0.00 0.00 0.00 78 1011.5
20260503053505 61 305 0.0 0.0 0.00 0.00 0.00 78 1011.5
20260503053005 61 305 0.0 0.0 0.00 0.00 0.00 78 1011.5
20260503052505 61 305 0.0 0.0 0.00 0.00 0.00 78 1011.5
20260503052005 61 305 0.0 0.0 0.00 0.00 0.00 77 1011.5
20260503051505 61 305 0.0 0.0 0.00 0.00 0.00 77 1011.5
20260503051005 61 305 0.0 0.0 0.00 0.00 0.00 77 1011.5
20260503050504 61 305 0.0 0.0 0.00 0.00 0.00 77 1011.5
20260503050005 61 305 0.0 0.0 0.00 0.00 0.00 77 1012.5
20260503045505 61 305 0.0 0.0 0.00 0.00 0.00 77 1012.5
20260503044505 60 305 0.0 0.0 0.00 0.00 0.00 76 1012.5
20260503044006 60 305 0.0 0.0 0.00 0.00 0.00 76 1012.5
20260503043504 61 305 0.0 0.0 0.00 0.00 0.00 76 1012.5
20260503043004 61 344 0.0 0.0 0.00 0.00 0.00 75 1011.5
20260503042505 61 35 0.0 0.0 0.00 0.00 0.00 75 1011.5
20260503042005 61 305 0.0 0.0 0.00 0.00 0.00 74 1011.5
20260503041004 61 305 0.0 0.0 0.00 0.00 0.00 73 1011.5
20260503040005 61 305 0.0 0.0 0.00 0.00 0.00 73 1011.5
20260503035505 62 305 0.0 0.0 0.00 0.00 0.00 73 1011.5
20260503035006 62 305 0.0 0.0 0.00 0.00 0.00 73 1011.5
20260503034505 62 305 0.0 0.0 0.00 0.00 0.00 73 1011.5
20260503034006 62 305 0.0 0.0 0.00 0.00 0.00 73 1011.5
20260503033005 62 305 0.0 0.0 0.00 0.00 0.00 72 1011.5
20260503032504 62 305 0.0 0.0 0.00 0.00 0.00 72 1011.5
20260503032005 62 215 0.0 0.0 0.00 0.00 0.00 72 1011.5
20260503030504 63 215 0.0 0.0 0.00 0.00 0.00 71 1010.5
20260503030005 63 215 0.0 2.0 0.00 0.00 0.00 71 1010.5
20260503025504 63 225 0.0 2.0 0.00 0.00 0.00 71 1010.5
20260503025005 63 215 0.0 2.0 0.00 0.00 0.00 71 1010.5
20260503024504 63 219 0.0 6.0 0.00 0.00 0.00 71 1011.5
20260503024004 63 215 1.0 8.0 0.00 0.00 0.00 71 1011.5
20260503023505 63 220 3.0 8.0 0.00 0.00 0.00 71 1011.5
20260503022504 64 211 5.0 8.0 0.00 0.00 0.00 70 1011.5
20260503021504 65 238 4.0 12.0 0.00 0.00 0.00 68 1010.5
20260503020504 67 175 3.0 8.0 0.00 0.00 0.00 63 1010.5
20260503020005 68 211 3.0 8.0 0.00 0.00 0.00 62 1009.5
20260503015504 69 230 0.0 2.0 0.00 0.00 0.00 61 1009.5
20260503015005 69 169 0.0 2.0 0.00 0.00 0.00 62 1009.5
20260503014505 69 260 0.0 0.0 0.00 0.00 0.00 62 1010.5
20260503014004 69 162 0.0 0.0 0.00 0.00 0.00 62 1010.5
20260503013004 69 80 0.0 0.0 0.00 0.00 0.00 61 1010.5
20260503012504 69 80 0.0 0.0 0.00 0.00 0.00 61 1010.5
20260503012004 69 80 0.0 0.0 0.00 0.00 0.00 61 1010.5
20260503011505 69 125 0.0 0.0 0.00 0.00 0.00 62 1010.5
20260503010505 69 35 0.0 0.0 0.00 0.00 0.00 61 1010.5
20260503005504 69 35 0.0 0.0 0.00 0.00 0.00 61 1010.5
20260503005004 69 35 0.0 0.0 0.00 0.00 0.00 60 1010.5
20260503004505 69 35 0.0 0.0 0.00 0.00 0.00 60 1010.5
20260503004004 69 51 0.0 0.0 0.00 0.00 0.00 60 1010.5
20260503003504 69 78 0.0 0.0 0.00 0.00 0.00 60 1010.5